Tracking 19286 objects as of 19-Nov-2018
HD Live streaming from Space Station
objects crossing your sky now

COSMOS 1711 (GLONASS)

Track COSMOS 1711 (GLONASS) now!
COSMOS 1711 (GLONASS) is classified as:


NORAD ID: 16397
Int'l Code: 1985-118B
Perigee: 19,113.4 km
Apogee: 19,160.7 km
Inclination: 65.9 °
Period: 675.7 minutes
Semi major axis: 25508 km
RCS: 0.7803 m2 (medium)
Launch date: December 24, 1985
Source: Commonwealth of Independent States (former USSR) (CIS)
Launch site: TYURATAM MISSILE AND SPACE COMPLEX (TTMTR)
SV:
aabbcc
Your satellite tracking list
Your tracking list is empty




NASA's NSSDC Master Catalog

Two Line Element Set (TLE):
1 16397U 85118B   18323.23695216 -.00000048  00000-0  00000+0 0  9992
2 16397  65.9422  55.5711 0009278 195.9045 239.1781  2.13101476256097
Source of the keplerian elements: AFSPC